Regional Weather Roundup
Issued by NWS

Home | Current Version | Previous Version | Graphics & Text | Print | Product List | Glossary On
Versions: 1 2 3 4 5 6 7 8 9 10 11 12 13 14 15 16 17 18 19 20 21 22 23 24 25 26 27 28 29 30 31 32 33 34 35 36 37 38 39 40 41 42 43 44 45 46 47 48 49 50
000
ASUS45 KCYS 250710
RWRWY

WYOMING REGIONAL WEATHER ROUNDUP
NATIONAL WEATHER SERVICE CHEYENNE WY
100 AM MDT FRI MAY 25 2018

NOTE:  "FAIR" INDICATES FEW OR NO CLOUDS BELOW 12,000 FEET
WITH NO SIGNIFICANT WEATHER AND/OR OBSTRUCTIONS TO VISIBILITY.

WYZ001-250800-
YELLOWSTONE NATIONAL PARK

CITY           SKY/WX    TMP DP  RH WIND       PRES   REMARKS
LK YELLOWSTONE NOT AVBL
W YELLOWSTONE  NOT AVBL

$$
WYZ002>013-054>058-071-098>099-250800-
NORTHERN WYOMING

CITY           SKY/WX    TMP DP  RH WIND       PRES   REMARKS
JACKSON        FOG       43  41  93 NE3       30.22F VSB 3/4
CODY           FAIR      58  43  57 W3        30.09F
GREYBULL       FAIR      64  49  57 SE3       30.01S
WORLAND        FAIR      56  52  86 NE6       30.02R
SHERIDAN       MOCLDY    58  50  75 CALM      29.99R
BUFFALO        FAIR      57  46  66 SW6       30.04S
GILLETTE       FAIR      51  48  89 S7        29.99F
NEWCASTLE      FAIR      54  46  76 CALM      30.00R

$$
WYZ014>020-022>026-101>103-250800-
CENTRAL WYOMING

CITY           SKY/WX    TMP DP  RH WIND       PRES   REMARKS
BIG PINEY      FAIR      43  39  86 CALM      30.23S
PINEDALE       FAIR      41  41 100 CALM      30.24S
DUBOIS         FAIR      45  37  76 NW13      30.21F
LANDER         FAIR      54  42  64 S6        30.10F
RIVERTON       FAIR      55  43  63 NW13      30.10F
CASPER         FAIR      52  47  83 W8        30.08S
DOUGLAS        FAIR      52  48  86 CALM      30.07S

$$
WYZ021-027>030-104>119-250800-
SOUTHERN WYOMING

CITY           SKY/WX    TMP DP  RH WIND       PRES   REMARKS
EVANSTON       FAIR      55  38  52 E6        30.22F
FORT BRIDGER   FAIR      53  39  59 E6        30.26S
ROCK SPRINGS   FAIR      52  38  58 NW5       30.20F
DIXON          FAIR      50  36  57 NE7       30.22S
RAWLINS        FAIR      48  34  58 CALM      30.19F
SARATOGA       FAIR      46  36  66 S9        30.22F
LARAMIE        FAIR      45  35  68 S9        30.21F
CHEYENNE       FAIR      50  43  77 SW7       30.15F
TORRINGTON     FAIR      56  54  93 CALM      30.00S
PINE BLUFFS    FAIR      50  46  87 S5        30.10S

$$



USA.gov is the U.S. government's official web portal to all federal, state and local government web resources and services.